Mildenhall RAF, United Kingdom

8:19 AM BST on June 23, 2017 (GMT +0100)
Mildenhall Air Base

Weather History for EGUN - March, 2014

Change the Weather History Date:

Monday, March 3, 2014

  Actual Average Record
Temperature  
Mean Temperature 42 °F -  
Max Temperature 51 °F - - ()
Min Temperature 32 °F - - ()
Degree Days  
Heating Degree Days 24    
Moisture  
Dew Point 37 °F    
Average Humidity 96    
Maximum Humidity 100    
Minimum Humidity 67    
Precipitation  
Precipitation 0.09 in - - ()
Sea Level Pressure  
Sea Level Pressure 29.24 in    
Wind  
Wind Speed 6 mph ()    
Max Wind Speed 14 mph    
Max Gust Speed 21 mph    
Visibility 4.5 miles    
Events Fog , Rain    
T = Trace of Precipitation, MM = Missing Value Source: Averaged Metar Reports

Daily Weather History Graph

Daily Weather History Graph

Search for Another Location

Airport or City:

Trip Planner

Search our weather history database for the weather conditions in past years. The results will help you decide how hot, cold, wet, or windy it might be!

Date:

Astronomy

Mar. 03, 2014 Rise Set
Actual Time 6:40 AM GMT 5:40 PM GMT
Civil Twilight 6:06 AM GMT 6:14 PM GMT
Nautical Twilight 5:26 AM GMT 6:54 PM GMT
Astronomical Twilight 4:47 AM GMT 7:34 PM GMT
Moon 7:17 AM GMT (3/3) 8:53 PM GMT (3/3)
Length of Visible Light 12h 08m
Length of Day
11h 00m
Waxing Crescent, 6% of the Moon is Illuminated
Mar 3
Waxing Crescent
Mar 8
First Quarter
Mar 16
Full
Mar 24
Last Quarter
Mar 30
New

Hourly Weather History & Observations

Time (GMT) Temp. Windchill Dew Point Humidity Pressure Visibility Wind Dir Wind Speed Gust Speed Precip Events Conditions
12:13 AM 44.6 °F 38.1 °F 44.6 °F 100% 28.98 in 6.2 mi South 13.8 mph - N/A   Overcast
12:28 AM 42.8 °F 36.2 °F 42.8 °F 100% 28.98 in 6.2 mi SSW 12.7 mph - N/A   Overcast
12:30 AM 42.8 °F 36.2 °F 42.8 °F 100% 28.98 in 6.2 mi SW 12.7 mph - N/A   Overcast
12:35 AM 42.8 °F 37.5 °F 42.8 °F 100% 28.98 in 6.2 mi SW 9.2 mph - N/A   Overcast
12:40 AM 42.8 °F 38.0 °F 42.8 °F 100% 28.98 in 6.2 mi SW 8.1 mph - N/A   Overcast
12:58 AM 42.4 °F 37.5 °F 42.4 °F 100% 29.00 in 6.2 mi SW 8.1 mph - 0.06 in   Overcast
1:08 AM 42.8 °F 38.6 °F 42.8 °F 100% 28.98 in 6.2 mi SW 6.9 mph - N/A   Overcast
1:18 AM 42.8 °F 39.3 °F 42.8 °F 100% 28.98 in 6.2 mi SW 5.8 mph - N/A   Overcast
1:48 AM 41.0 °F 37.1 °F 41.0 °F 100% 28.97 in 6.2 mi SW 5.8 mph - N/A   Overcast
1:58 AM 41.9 °F 39.0 °F 41.9 °F 100% 28.97 in 6.2 mi SW 4.6 mph - 0.03 in   Overcast
2:23 AM 41.0 °F 37.1 °F 41.0 °F 100% 28.97 in 6.2 mi SW 5.8 mph - N/A   Mostly Cloudy
2:58 AM 41.5 °F 37.1 °F 41.5 °F 100% 28.98 in 6.2 mi SW 6.9 mph - N/A   Overcast
3:13 AM 41.0 °F 38.0 °F 41.0 °F 100% 28.97 in 6.2 mi SSW 4.6 mph - N/A   Scattered Clouds
3:58 AM 39.4 °F 35.2 °F 39.4 °F 100% 28.98 in 6.2 mi SSW 5.8 mph - N/A   Scattered Clouds
4:58 AM 37.8 °F 34.2 °F 37.8 °F 100% 28.99 in 6.2 mi SW 4.6 mph - N/A   Scattered Clouds
5:58 AM 38.3 °F 33.9 °F 38.3 °F 100% 29.00 in 6.2 mi SSW 5.8 mph - N/A   Scattered Clouds
6:58 AM 37.9 °F 34.4 °F 37.9 °F 100% 29.02 in 6.2 mi SSW 4.6 mph - N/A   Mostly Cloudy
7:58 AM 37.4 °F 33.8 °F 37.4 °F 100% 29.04 in 6.2 mi South 4.6 mph - N/A   Clear
8:58 AM 41.4 °F 36.2 °F 41.4 °F 100% 29.05 in 6.2 mi SW 8.1 mph - N/A   Clear
9:58 AM 44.6 °F 41.4 °F 44.6 °F 100% 29.06 in 6.2 mi SSW 5.8 mph - N/A   Clear
10:58 AM 47.8 °F - 44.2 °F 87% 29.08 in 6.2 mi SW 6.9 mph - N/A   Clear
11:48 AM 50.0 °F - 41.0 °F 71% 29.08 in 6.2 mi SW 5.8 mph - N/A Rain Light Rain
11:57 AM 48.2 °F - 41.0 °F 76% 29.08 in 6.2 mi Variable 4.6 mph - N/A   Mostly Cloudy
11:58 AM 48.9 °F - 41.9 °F 77% 29.09 in 6.2 mi South 6.9 mph - 0.00 in   Mostly Cloudy
12:03 PM 48.2 °F - 41.0 °F 76% 29.08 in 6.2 mi South 4.6 mph - N/A   Mostly Cloudy
12:23 PM 48.2 °F - 41.0 °F 76% 29.08 in 6.2 mi SSW 6.9 mph - N/A   Scattered Clouds
12:58 PM 50.5 °F - 40.6 °F 69% 29.09 in 6.2 mi Variable 2.3 mph - 0.00 in   Partly Cloudy
1:58 PM 51.1 °F - 40.5 °F 67% 29.11 in 6.2 mi SE 9.2 mph - N/A   Mostly Cloudy
2:48 PM 48.2 °F - 41.0 °F 76% 29.13 in 6.2 mi SSW 12.7 mph 20.7 mph N/A   Mostly Cloudy
2:53 PM 46.4 °F 40.7 °F 39.2 °F 76% 29.13 in 6.2 mi SSW 12.7 mph - N/A   Overcast
2:58 PM 45.7 °F 40.2 °F 39.6 °F 79% 29.15 in 6.2 mi SSW 11.5 mph 19.6 mph N/A   Overcast
3:13 PM 44.6 °F 39.2 °F 39.2 °F 81% 29.14 in 6.2 mi SSW 10.4 mph - N/A   Mostly Cloudy
3:27 PM 44.6 °F 40.2 °F 41.0 °F 87% 29.15 in 6.2 mi SSW 8.1 mph - N/A Rain Light Rain
3:38 PM 44.6 °F 41.4 °F 41.0 °F 87% 29.15 in 6.2 mi South 5.8 mph - N/A   Overcast
3:58 PM 44.2 °F 41.0 °F 41.0 °F 88% 29.18 in 6.2 mi SSE 5.8 mph - 0.00 in   Mostly Cloudy
4:12 PM 44.6 °F 41.4 °F 41.0 °F 87% 29.17 in 6.2 mi East 5.8 mph - N/A Rain Light Rain
4:29 PM 44.6 °F 43.1 °F 41.0 °F 87% 29.18 in 6.2 mi ESE 3.5 mph - N/A   Partly Cloudy
4:58 PM 43.9 °F 41.3 °F 41.2 °F 90% 29.20 in 6.2 mi SSW 4.6 mph - 0.00 in   Partly Cloudy
5:03 PM 44.6 °F - 41.0 °F 87% 29.20 in 6.2 mi SW 1.2 mph - N/A   Clear
5:20 PM 42.8 °F - 41.0 °F 93% 29.21 in 6.2 mi East 2.3 mph - N/A   Clear
5:39 PM 42.8 °F 39.3 °F 42.8 °F 100% 29.22 in 6.2 mi NE 5.8 mph - N/A Rain Light Rain
5:53 PM 42.8 °F 41.1 °F 41.0 °F 93% 29.23 in 6.2 mi ENE 3.5 mph - N/A   Clear
5:58 PM 42.8 °F - 41.5 °F 95% 29.24 in 6.2 mi ENE 2.3 mph - 0.00 in   Clear
6:58 PM 40.1 °F 36.1 °F 40.1 °F 100% 29.28 in 6.2 mi North 5.8 mph - N/A   Clear
7:48 PM 39.2 °F 35.0 °F 39.2 °F 100% 29.30 in 6.2 mi NNE 5.8 mph - N/A   Mostly Cloudy
7:58 PM 39.4 °F 37.2 °F 39.4 °F 100% 29.31 in 6.2 mi NNE 3.5 mph - N/A   Mostly Cloudy
8:13 PM 39.2 °F 35.9 °F 39.2 °F 100% 29.31 in 6.2 mi NNE 4.6 mph - N/A   Scattered Clouds
8:58 PM 37.4 °F - 37.4 °F 100% 29.34 in 6.2 mi ENE 2.3 mph - N/A   Clear
9:12 PM 37.4 °F - 37.4 °F 100% 29.34 in 5.0 mi NNE 2.3 mph - N/A   Clear
9:17 PM 37.4 °F - 37.4 °F 100% 29.34 in 5.0 mi North 2.3 mph - N/A   Clear
9:42 PM 35.6 °F 32.8 °F 35.6 °F 100% 29.35 in 3.7 mi East 3.5 mph - N/A   Clear
9:43 PM 33.8 °F 30.8 °F 33.8 °F 100% 29.35 in 2.5 mi East 3.5 mph - N/A   Clear
9:44 PM 33.8 °F 30.8 °F 33.8 °F 100% 29.35 in - East 3.5 mph - N/A   Clear
9:45 PM 33.8 °F 30.8 °F 33.8 °F 100% 29.35 in 1.7 mi East 3.5 mph - N/A   Clear
9:46 PM 33.8 °F 30.8 °F 33.8 °F 100% 29.35 in 1.2 mi East 3.5 mph - N/A   Clear
9:48 PM 33.8 °F 29.6 °F 33.8 °F 100% 29.35 in 1.0 mi ESE 4.6 mph - N/A   Clear
9:49 PM 33.8 °F 29.6 °F 33.8 °F 100% 29.35 in 0.7 mi ESE 4.6 mph - N/A   Clear
9:50 PM 35.6 °F 30.7 °F 35.6 °F 100% 29.35 in 0.7 mi SE 5.8 mph - N/A   Clear
9:55 PM 35.6 °F - 35.6 °F 100% 29.35 in 0.5 mi SE 2.3 mph - N/A Fog Fog
9:58 PM 35.2 °F - 35.2 °F 100% 29.36 in 0.7 mi SE 1.2 mph - N/A   Clear
10:00 PM 35.6 °F - 35.6 °F 100% 29.36 in 0.7 mi Calm Calm - N/A   Clear
10:05 PM 35.6 °F - 35.6 °F 100% 29.36 in 1.0 mi Calm Calm - N/A   Clear
10:09 PM 35.6 °F - 35.6 °F 100% 29.36 in 1.0 mi WNW 2.3 mph - N/A   Clear
10:10 PM 35.6 °F - 35.6 °F 100% 29.36 in 1.2 mi WNW 2.3 mph - N/A   Clear
10:12 PM 33.8 °F 30.8 °F 33.8 °F 100% 29.36 in 1.7 mi WNW 3.5 mph - N/A   Clear
10:14 PM 33.8 °F 30.8 °F 33.8 °F 100% 29.36 in 2.5 mi WNW 3.5 mph - N/A   Clear
10:15 PM 33.8 °F 30.8 °F 33.8 °F 100% 29.36 in 3.1 mi WNW 3.5 mph - N/A   Clear
10:16 PM 33.8 °F 30.8 °F 33.8 °F 100% 29.36 in 3.7 mi WNW 3.5 mph - N/A   Clear
10:18 PM 33.8 °F 30.8 °F 33.8 °F 100% 29.36 in 5.0 mi WNW 3.5 mph - N/A   Clear
10:19 PM 35.6 °F 32.8 °F 35.6 °F 100% 29.36 in 5.0 mi WNW 3.5 mph - N/A   Clear
10:24 PM 33.8 °F 30.8 °F 33.8 °F 100% 29.37 in 3.7 mi WNW 3.5 mph - N/A   Clear
10:26 PM 33.8 °F - 33.8 °F 100% 29.37 in 3.1 mi WNW 2.3 mph - N/A   Clear
10:33 PM 33.8 °F - 33.8 °F 100% 29.37 in 3.1 mi Calm Calm - N/A   Clear
10:35 PM 33.8 °F - 33.8 °F 100% 29.37 in 3.7 mi SE 2.3 mph - N/A   Clear
10:37 PM 33.8 °F 30.8 °F 33.8 °F 100% 29.37 in 5.0 mi South 3.5 mph - N/A   Clear
10:38 PM 33.8 °F 30.8 °F 33.8 °F 100% 29.37 in 5.0 mi South 3.5 mph - N/A   Clear
10:42 PM 33.8 °F 29.6 °F 33.8 °F 100% 29.37 in 3.7 mi South 4.6 mph - N/A   Clear
10:44 PM 33.8 °F - 33.8 °F 100% 29.38 in 3.1 mi South 2.3 mph - N/A   Clear
10:46 PM 33.8 °F - 33.8 °F 100% 29.38 in 2.5 mi South 2.3 mph - N/A   Clear
10:49 PM 33.8 °F - 33.8 °F 100% 29.38 in 3.1 mi South 2.3 mph - N/A   Clear
10:52 PM 33.8 °F 30.8 °F 33.8 °F 100% 29.38 in 2.5 mi South 3.5 mph - N/A   Clear
10:58 PM 33.8 °F - 33.8 °F 100% 29.39 in 2.5 mi South 1.2 mph - N/A   Clear
11:03 PM 33.8 °F - 33.8 °F 100% 29.39 in - SW 2.3 mph - N/A   Clear
11:05 PM 33.8 °F - 33.8 °F 100% 29.39 in 1.7 mi WSW 1.2 mph - N/A   Clear
11:10 PM 33.8 °F - 33.8 °F 100% 29.39 in 1.2 mi SW 2.3 mph - N/A   Clear
11:15 PM 33.8 °F 30.8 °F 33.8 °F 100% 29.39 in 1.7 mi WSW 3.5 mph - N/A   Clear
11:18 PM 33.8 °F 30.8 °F 33.8 °F 100% 29.39 in 3.1 mi West 3.5 mph - N/A   Clear
11:19 PM 33.8 °F 29.6 °F 33.8 °F 100% 29.39 in 3.1 mi West 4.6 mph - N/A   Clear
11:25 PM 32.0 °F 27.5 °F 32.0 °F 100% 29.39 in 3.1 mi West 4.6 mph - N/A   Clear
11:27 PM 32.0 °F 27.5 °F 32.0 °F 100% 29.39 in 2.5 mi West 4.6 mph - N/A   Clear
11:32 PM 32.0 °F 27.5 °F 32.0 °F 100% 29.40 in - West 4.6 mph - N/A   Clear
11:37 PM 32.0 °F 27.5 °F 32.0 °F 100% 29.40 in 3.1 mi West 4.6 mph - N/A   Clear
11:45 PM 32.0 °F 28.7 °F 32.0 °F 100% 29.40 in 3.1 mi WNW 3.5 mph - N/A   Clear
11:49 PM 32.0 °F 28.7 °F 32.0 °F 100% 29.41 in 3.7 mi WNW 3.5 mph - N/A   Clear
11:57 PM 32.0 °F - 32.0 °F 100% 29.41 in 2.5 mi West 2.3 mph - N/A   Clear
11:58 PM 33.1 °F - 33.1 °F 100% 29.42 in - West 2.3 mph - N/A   Clear
11:59 PM 32.0 °F - 32.0 °F 100% 29.41 in 1.5 mi West 2.3 mph - N/A   Clear